Location: Deisendorf
(47.7690°N, 9.2132°E)
Time: 11:35:05
(UTC+00:00)

Daily predictions for brighter satellites

Satellite Brightness Start Highest point End
(mag) Time Altitude Azimuth Time Altitude Azimuth Time Altitude Azimuth
BREEZE-M DEB (TANK) 3.5 19:27:11 10° SSW 19:30:26 45° SE 19:40:04 10° ENE
Cosmos 1680 Rocket 4.5 19:30:13 10° SSE 19:34:34 27° E 19:38:56 10° NE
Cosmos 1076 Rocket 3.5 19:31:48 10° S 19:36:09 81° E 19:40:33 10° NNE
Cosmos 1689 Rocket 3.6 19:34:19 10° N 19:36:56 38° WNW 19:39:31 10° SW
Resurs 01 Rocket 1.8 19:32:42 10° SSE 19:37:03 59° ENE 19:41:27 10° N
SL-16 R/B 2.5 19:34:58 10° NNW 19:40:36 58° ENE 19:46:11 10° SE
Cosmos 1151 Rocket 4.3 19:37:23 10° NNE 19:41:06 26° ENE 19:44:48 10° SE
ATLAS 5 CENTAUR R/B 4.1 19:40:16 10° NNW 19:44:01 20° NNE 19:48:13 10° ENE
Terra 3.7 19:41:13 10° E 19:44:03 16° ENE 19:46:55 10° NNE
RESURS DK-1 4.0 19:41:18 10° SW 19:45:14 40° NW 19:49:12 10° NNE
Meteor 2-3 Rocket 4.0 19:41:32 10° SSE 19:47:00 52° E 19:52:33 10° NNE
Cosmos 332 Rocket 3.9 19:42:22 10° NNW 19:47:18 90° NE 19:52:13 10° SSE
SPOT 3 Rocket 3.7 19:42:41 10° SSE 19:47:50 62° ENE 19:53:00 10° N
Cosmos 1933 3.4 19:48:20 10° N 19:52:23 66° ENE 19:56:23 10° SSE
Cosmos 1271 Rocket 2.9 19:49:41 10° N 19:53:39 59° ENE 19:57:36 10° SSE
Gbstr 26 Del rocket 2.9 19:51:05 10° WNW 19:54:45 60° SSW 19:58:12 13° SE
Cosmos 1538 Rocket 4.3 19:51:00 10° SSW 19:56:12 74° WNW 20:01:24 10° NNE
OBJECT-B 3.6 19:55:03 10° SW 19:57:17 17° W 19:59:33 10° NW
SPOT 5 3.9 19:57:34 11° ESE 20:00:52 26° ENE 20:04:34 10° N
IGS 5A 3.6 19:57:08 10° S 20:01:16 78° WSW 20:05:26 10° NNW
Cosmos 2098 Rocket 3.4 19:58:16 10° SSW 20:01:29 53° WNW 20:05:26 10° N
ARIANE 5 R/B 3.6 19:58:58 12° SE 20:02:30 32° ENE 20:06:28 10° N
Meteor 2-19 Rocket 4.4 19:56:50 10° S 20:02:51 79° E 20:08:57 10° NNE
Cosmos 2195 Rocket 4.5 19:59:18 10° S 20:05:21 68° E 20:11:26 10° NNE
Ariane Rocket 3.8 20:02:02 10° S 20:06:58 52° W 20:11:56 10° NNW
Cosmos 1782 2.9 20:04:21 10° N 20:08:20 59° ENE 20:11:44 13° SSE
Landsat 7 3.9 20:03:40 10° S 20:08:25 78° WSW 20:13:13 10° NNW
Cosmos 1624 Rocket 4.4 20:06:59 10° NNW 20:12:03 49° ENE 20:16:05 16° SE
Cosmos 304 Rocket 4.3 20:08:06 10° NNW 20:12:49 58° WSW 20:17:29 10° S
Cosmos 2082 Rocket 3.9 20:07:56 10° WSW 20:13:10 38° NW 20:18:28 10° NNE
Cosmos 220 Rocket 4.2 20:10:59 10° NNW 20:15:18 62° ENE 20:18:36 17° SE
ATLAS 3B R/B 3.9 20:13:03 10° NW 20:19:30 38° WSW 20:26:09 10° S
Cosmos 2360 Rocket 2.5 20:14:08 10° NNW 20:19:40 54° ENE 20:23:55 17° SE
ATLAS 2AS CENTAUR R/B 4.4 20:14:58 10° WSW 20:22:22 42° NNW 20:29:32 10° NE
MetOp-B 4.3 20:18:54 10° S 20:24:15 77° WSW 20:29:39 10° NNW
Cosmos 1174 4.4 20:22:10 10° NNW 20:24:53 30° NE 20:26:29 18° E
Cosmos 1092 Rocket 4.1 20:20:22 10° S 20:26:39 82° W 20:33:02 10° N
ISS -1.2 20:29:01 10° WSW 20:30:24 12° SW 20:31:46 10° SSW
Cosmos 2151 4.1 20:27:30 10° SSW 20:31:35 45° WNW 20:35:43 10° N
NOSS 2-1 (C) 3.0 20:28:32 10° SSW 20:31:44 48° SE 20:34:58 10° NE
ERS-2 3.8 20:30:34 10° N 20:33:55 35° WNW 20:37:15 10° SW
Cosmos 2026 Rocket 4.1 20:29:18 10° S 20:35:39 86° W 20:41:57 10° N
Cosmos 2084 3.2 20:33:15 10° SSW 20:37:17 73° SE 20:41:27 10° NE
COSMOS 2455 3.8 20:34:51 19° SSE 20:37:47 27° ESE 20:42:45 10° NE
Cosmos 1812 2.7 20:34:33 10° N 20:38:25 64° ENE 20:40:31 25° SSE
NOSS 2-1 (D) 2.8 20:36:12 10° SSW 20:39:28 59° SE 20:42:47 10° NE
GP-B 3.1 20:35:37 10° N 20:40:05 83° W 20:44:00 13° S
Cosmos 2333 Rocket 2.9 20:35:22 10° NNW 20:40:44 42° NE 20:44:24 19° ESE
Cosmos 923 Rocket 4.4 20:37:02 10° SSW 20:42:21 68° WNW 20:47:43 10° NNE
BREEZE-M DEB (TANK) 4.5 20:39:24 10° W 20:43:04 45° SSW 20:49:45 19° SE
SPOT 1/Viking Rocket 4.0 20:38:27 12° S 20:43:16 60° W 20:48:27 10° NNW
ERS-1 Rocket 3.0 20:40:25 21° SSE 20:43:44 68° ENE 20:48:45 10° N
USA 245 3.9 20:42:07 15° S 20:46:00 63° WSW 20:49:51 10° NNW
SL-27 R/B 2.5 20:44:42 23° S 20:46:44 56° ESE 20:50:16 10° NNE
Cosmos 2322 4.4 20:42:29 10° NNW 20:47:58 45° NE 20:51:30 21° ESE
Okean 3 Rocket 3.7 20:48:05 12° SSW 20:52:18 81° W 20:56:52 10° N
USA 276 4.2 20:50:40 10° W 20:52:42 16° SW 20:53:10 16° SSW
Cosmos 2056 Rocket 3.6 20:47:36 10° NNW 20:52:59 81° WSW 20:56:17 24° SSE
Cosmos 2237 Rocket 4.2 20:49:08 10° N 20:53:03 18° NE 20:56:56 10° E
Cosmos 1408 Rocket 3.7 20:50:54 25° SSE 20:53:11 55° E 20:57:25 10° NNE
Cosmos 2322 Rocket 2.7 20:48:29 10° NW 20:53:58 54° WSW 20:57:55 19° S
Meteor 2-14 Rocket 4.4 20:48:52 13° S 20:54:23 76° E 21:00:33 10° NNE
Cosmos 1743 Rocket 4.4 20:55:45 28° SE 20:57:05 34° E 21:01:05 10° NNE
CARTOSAT-1 4.1 20:59:31 20° S 21:02:20 55° W 21:06:36 10° NNW
Meteor 1-10 Rocket 4.1 20:58:33 10° N 21:04:08 79° ENE 21:07:16 27° SSE
USA 234 4.3 20:58:11 10° E 21:04:19 44° NNE 21:10:27 10° WNW
Spot 2 Rocket 4.0 21:03:04 18° S 21:06:43 56° W 21:11:46 10° NNW
Cosmos 2219 Rocket 2.5 21:06:07 10° NNW 21:11:39 56° ENE 21:14:26 28° SE
Resurs 01 Rocket 4.1 21:11:05 10° SW 21:13:56 17° W 21:16:48 10° NW
BREEZE M DEB (TANK) 4.2 21:11:39 10° SW 21:15:52 61° SSE 21:43:34 10° E
Cosmos 1151 Rocket 4.5 21:14:46 10° NNW 21:18:41 33° W 21:21:48 14° SSW
Cosmos 1515 Rocket 3.6 21:14:17 10° NNW 21:18:43 76° W 21:20:36 34° S
Terra 1.8 21:19:00 32° S 21:21:13 78° WSW 21:26:01 10° NNW
Cosmos 1553 Rocket 4.4 21:16:07 10° NNW 21:22:04 58° W 21:26:23 19° SSW
Cosmos 2285 Rocket 4.2 21:16:56 10° NNW 21:23:11 62° ENE 21:26:17 30° SE
Cosmos 2266 Rocket 3.9 21:19:57 27° S 21:23:30 72° E 21:29:45 10° NNE
SL-16 R/B 3.9 21:19:46 10° NW 21:24:18 25° WSW 21:28:20 12° SSW
Cosmos 2315 Rocket 4.1 21:21:42 10° N 21:28:00 63° ENE 21:30:56 33° SSE
ATLAS 5 CENTAUR R/B 2.7 21:24:20 10° NW 21:29:39 57° NE 21:33:06 26° ESE
Cosmos 2333 4.2 21:25:16 10° NNW 21:30:54 79° WSW 21:33:17 36° SSE
Cosmos 2228 Rocket 3.1 21:29:47 10° N 21:34:12 65° E 21:35:17 47° SE
NOSS 2-1 (E) 4.2 21:34:39 10° WSW 21:37:46 40° NW 21:41:07 10° NNE
SPOT 5 3.8 21:36:48 23° SSW 21:38:50 36° W 21:42:56 10° NNW
ARIANE 5 R/B 4.1 21:36:32 18° SW 21:38:57 30° W 21:42:53 10° NW
COSMOS 2428 2.7 21:33:32 10° NNW 21:39:16 73° ENE 21:41:31 38° SE
Cosmos 883 Rocket 4.5 21:36:35 10° N 21:42:51 89° W 21:45:47 34° S
NOSS 3-1 (C) 4.2 21:37:32 10° NW 21:45:00 70° SW 21:49:24 32° SSE
Cosmos 1707 Rocket 4.3 21:41:09 10° N 21:45:16 39° ENE 21:45:57 36° E
IRIDIUM 106 4.3 21:41:32 10° N 21:46:48 78° E 21:48:29 44° SSE
Cosmos 1048 Rocket 3.9 21:48:39 45° SSE 21:50:01 64° ESE 21:55:06 10° NNE
Cosmos 1655 Rocket 4.5 21:54:13 20° SSW 21:58:40 60° WNW 22:05:01 10° N
ALOS 2 3.7 21:59:23 29° E 22:00:11 32° ENE 22:04:05 10° N
COSMOS 2487 2.6 22:00:10 63° WNW 22:00:13 63° WNW 22:03:36 10° NNE
USA 229 DEB 3.9 21:53:37 10° NW 22:00:58 82° SW 22:04:27 37° SSE
USA 229 3.9 21:53:43 10° NW 22:01:04 82° SW 22:04:33 36° SSE
Cosmos 972 Rocket 4.0 21:59:17 34° SSW 22:01:37 80° WNW 22:06:37 10° NNE
Cosmos 1805 Rocket 3.5 22:02:11 59° S 22:03:01 88° W 22:07:29 10° N
Cosmos 2360 Rocket 3.7 21:58:41 10° NW 22:03:20 27° WSW 22:05:41 20° SW
Cosmos 2084 Rocket 3.8 22:04:21 10° NW 22:08:30 57° NE 22:09:18 48° E
CZ-4C R/B 4.3 22:04:23 10° NNW 22:10:15 31° NNE 22:17:05 10° E
USA 267 3.3 22:05:52 10° ENE 22:12:16 54° SE 22:14:48 35° SSW
Cosmos 1980 4.0 22:10:03 10° NNW 22:15:39 58° ENE 22:17:31 39° ESE
NOSS 0 Rocket 3.9 22:10:32 10° NNW 22:16:49 83° ENE 22:18:54 45° SE
NOSS 3-1 (A) 4.1 22:14:01 10° NW 22:21:28 67° SW 22:25:00 38° SSE
COSMOS 2455 3.2 22:17:53 13° SW 22:23:18 62° NW 22:29:18 10° NNE
Lacrosse 5 2.6 22:25:50 37° E 22:25:50 37° E 22:29:26 10° ENE
Meteor 1-20 Rocket 4.2 22:23:03 44° SSW 22:24:54 80° WNW 22:30:40 10° N
Cosmos 2333 Rocket 3.1 22:19:49 10° NW 22:24:56 36° WSW 22:26:23 31° SW
Cosmos 1452 Rocket 4.3 22:20:11 10° NW 22:25:03 39° WSW 22:26:16 34° SW
Nadezhda 2 Rocket 4.5 22:23:24 44° S 22:25:38 86° E 22:32:06 10° N
COBE Rocket 3.8 22:26:51 58° SSW 22:27:31 67° W 22:32:14 10° NNW
Cosmos 972 4.5 22:28:20 49° SSW 22:29:52 88° WNW 22:35:01 10° NNE
BREEZE-M R/B 2.8 22:27:38 10° WSW 22:31:56 53° E 22:35:45 10° ENE
Cosmos 2297 Rocket 2.6 22:32:07 42° ESE 22:32:25 42° ESE 22:37:43 10° NE
Cosmos 1500 3.5 22:34:31 61° NE 22:34:31 61° NE 22:37:52 10° NNE
Sich 1 3.5 22:34:10 47° WSW 22:34:52 53° WNW 22:39:07 10° N
Cosmos 1244 Rocket 4.4 22:34:47 46° SSW 22:36:48 86° W 22:43:03 10° N
Cosmos 2237 Rocket 2.2 22:32:21 10° NNW 22:38:05 78° ENE 22:39:29 52° SE
Cosmos 1470 Rocket 3.9 22:43:08 51° E 22:43:08 51° E 22:47:05 10° NNE
Cosmos 1633 Rocket 2.9 22:44:04 87° SW 22:44:08 88° W 22:48:31 10° N
BREEZE-M DEB (TANK) 4.3 22:41:09 10° W 22:42:20 16° W 22:42:20 16° W
Cosmos 2227 Rocket 2.8 22:44:30 39° ESE 22:44:41 40° ESE 22:49:55 10° NE
USA 234 3.3 22:42:59 27° ESE 22:46:55 80° NNE 22:53:29 10° NW
Cosmos 1110 Rocket 4.4 22:42:19 10° NNW 22:47:26 48° WSW 22:48:10 45° SW
Cosmos 1933 Rocket 4.3 22:49:28 40° E 22:49:28 40° E 22:53:27 10° NNE
Cosmos 1331 Rocket 4.3 22:44:52 10° NNW 22:49:55 50° WSW 22:50:32 47° SW
APEX 4.4 22:48:05 43° SW 22:50:14 82° WNW 22:57:00 10° NNE
Cosmos 1666 Rocket 3.7 22:50:45 60° WSW 22:51:07 63° WNW 22:55:33 10° N
Cosmos 2242 Rocket 4.4 22:49:21 10° N 22:53:30 39° ENE 22:53:45 39° E
Cosmos 1340 Rocket 3.9 22:54:24 35° ENE 22:54:24 35° ENE 22:57:20 10° NNE
Cosmos 2219 Rocket 3.5 22:50:42 10° NW 22:55:13 26° WSW 22:56:08 24° WSW
Cosmos 1378 4.4 22:52:53 10° N 22:55:52 34° ENE 22:55:52 34° ENE
NOSS 2-2 (E) 4.4 22:53:27 10° NW 22:58:52 79° SW 23:00:50 49° SSE
SL-16 R/B 2.8 23:02:03 10° NNW 23:07:36 51° ENE 23:09:38 35° ESE
Cosmos 1862 Rocket 4.1 23:10:03 10° NNW 23:14:06 45° W 23:14:06 45° W
ATLAS 5 CENTAUR R/B 3.2 23:09:06 10° NW 23:14:17 35° WSW 23:14:35 35° SW
STPSAT 2 (USA 217) 4.5 23:10:11 10° NNW 23:14:45 88° WNW 23:14:45 88° WNW
Okean 3 4.4 23:11:52 10° N 23:15:53 38° ENE 23:16:01 37° E
COSMOS 2428 4.4 23:18:57 10° NW 23:22:54 20° W 23:23:31 19° WSW
NOSS 2-2 (C) 4.4 23:18:30 10° NW 23:23:49 66° SW 23:25:11 53° S
Meteor 2-4 Rocket 4.0 23:18:04 10° NNW 23:23:53 58° W 23:24:59 50° SW
Intercosmos 25 Rocket 4.1 23:24:02 50° E 23:24:09 50° E 23:29:43 10° NNE
Cosmos 1743 4.4 23:25:44 24° ENE 23:25:44 24° ENE 23:28:18 10° NNE
Cosmos 1666 3.4 23:26:25 51° NW 23:26:25 51° NW 23:29:46 10° N
Meteor 1-11 Rocket 3.8 23:25:58 53° SE 23:26:44 58° E 23:32:09 10° NNE
Cosmos 1703 Rocket 3.5 23:25:24 10° N 23:29:38 84° NNW 23:29:38 84° NNW
Cosmos 1709 Rocket 4.0 23:30:39 54° S 23:32:13 79° E 23:38:37 10° N
PSLV R/B 3.8 23:29:15 10° NNE 23:34:00 64° ESE 23:34:07 63° ESE
Cosmos 1992 Rocket 3.8 23:30:49 10° NNW 23:36:05 88° WSW 23:36:41 71° SSE
ALOS 2 3.9 23:36:46 29° W 23:36:46 29° W 23:40:23 10° NNW
Meteor 1-5 Rocket 4.5 23:35:45 48° SW 23:37:09 63° WNW 23:43:02 10° N
Cosmos 909 Rocket 4.2 23:36:15 49° SSW 23:38:17 79° ESE 23:46:07 10° NE
Cosmos 1745 Rocket 4.3 23:39:17 42° SW 23:41:09 57° WNW 23:47:22 10° N
Cosmos 2219 3.3 23:42:23 50° SW 23:43:52 72° WNW 23:49:38 10° NNE
CZ-2D R/B 4.1 23:40:29 10° NE 23:43:54 17° E 23:45:32 15° ESE
Cosmos 1066 Rocket 4.2 23:41:36 10° NNW 23:47:31 86° W 23:48:43 59° S
Meteor 1-13 Rocket 4.2 23:45:47 10° NNW 23:51:31 69° W 23:52:26 58° SSW
Timation 1 Rocket 4.3 23:51:21 54° SW 23:52:50 84° WNW 23:58:53 10° NNE
